Theta_e
337 347 345 342 335 337 341 338 340 336 332 329 330 329 324 317 315 313 313 314 314 313 312 312 311 310 310 310 309 309 308 309 308 308 308 308 309 310 309 310 310 310 311
339 346 340 339 341 344 343 340 336 332 330 329 326 321 316 315 314 314 314 314 314 313 313 312 310 310 309 309 308 307 308 308 308 307 307 308 308 309 309 310 310 310 309
342 344 337 339 341 343 339 336 333 329 328 327 321 315 314 314 314 314 314 314 312 312 311 310 309 309 308 307 306 306 307 308 307 307 306 307 307 308 310 309 310 309 309
343 344 343 343 342 340 335 332 329 328 325 321 316 314 314 314 313 314 313 312 311 310 310 309 308 307 305 305 305 306 307 308 307 306 307 306 305 308 307 306 309 309 308
344 343 341 340 338 333 329 328 326 326 325 317 314 315 315 314 314 314 313 312 311 310 309 308 306 303 302 303 304 306 307 307 306 306 306 306 305 306 305 306 304 303 306
342 340 337 334 334 330 326 324 328 324 317 314 315 315 314 313 314 313 312 311 310 308 308 307 306 304 301 301 303 305 305 305 305 305 305 305 305 303 304 304 304 302 303
332 334 333 331 328 326 324 325 321 313 313 313 313 313 312 313 312 312 311 310 308 306 306 304 302 301 299 298 300 303 305 305 304 304 304 304 304 304 303 304 304 303 303
324 322 326 330 326 321 323 318 312 312 312 312 312 311 311 311 311 310 309 308 306 304 302 300 299 297 296 296 296 301 304 304 304 304 304 305 305 305 304 304 303 303 303
326 327 327 324 321 321 314 312 312 312 311 311 311 310 310 308 308 308 307 306 304 301 298 297 296 295 295 295 297 300 301 303 304 304 305 306 306 305 304 304 302 302 302
326 327 321 319 322 315 311 311 310 311 310 310 309 309 308 307 305 305 305 303 301 299 297 296 295 295 294 295 297 299 300 301 303 305 305 305 305 305 305 303 302 302 302
322 323 320 321 313 311 311 310 310 309 309 309 308 306 304 303 302 301 300 300 298 296 295 295 294 294 294 294 296 297 299 301 303 304 304 305 305 305 305 304 303 302 301
321 319 316 313 312 311 309 308 308 308 308 304 302 300 299 299 298 297 297 297 295 295 294 293 293 293 293 294 295 297 299 302 302 303 303 303 303 303 305 304 303 302 301
317 315 313 311 309 308 307 307 306 304 302 300 299 298 296 296 296 296 295 295 294 293 292 291 292 292 292 293 295 296 298 300 301 301 301 302 302 303 304 305 304 304 303
314 312 311 308 307 307 307 306 305 302 299 298 296 294 294 294 294 294 294 293 293 293 292 292 291 291 292 292 294 295 297 298 298 299 300 301 302 303 302 304 304 304 302
312 310 308 307 308 308 305 304 301 297 297 295 294 294 295 294 294 293 293 292 292 292 292 292 292 292 292 293 294 295 295 297 298 298 300 301 301 301 302 304 304 303 301
310 309 309 309 308 306 304 296 294 293 294 294 294 294 294 293 293 292 292 291 291 291 292 291 291 291 292 293 293 294 294 295 296 297 299 299 299 300 301 303 304 303 302
311 310 308 307 305 302 297 295 293 292 293 293 293 293 293 293 292 292 292 291 291 291 291 290 290 290 290 291 292 292 293 294 295 297 298 299 299 300 300 302 303 303 302
308 308 307 303 300 296 294 293 293 293 293 293 292 292 292 291 291 291 291 291 291 290 289 289 289 289 289 290 291 291 292 293 294 296 298 298 298 299 300 302 302 303 302
307 303 298 295 294 294 294 294 294 294 294 293 292 291 291 291 290 290 290 290 289 289 289 289 288 288 289 289 290 290 292 292 293 295 296 297 298 299 299 301 302 303 303
297 295 295 295 295 295 295 295 294 294 294 293 292 291 291 291 291 290 289 289 289 288 288 288 288 288 288 289 289 290 291 291 293 295 296 297 298 298 299 300 302 302 302
298 298 298 297 297 296 295 295 294 294 293 292 291 291 291 291 290 290 289 289 288 288 288 288 288 288 288 288 289 289 291 291 293 294 296 298 298 299 299 300 301 301 302
299 298 298 297 295 294 294 293 293 293 292 292 291 291 290 290 290 290 289 289 288 287 287 287 288 288 288 288 288 289 290 291 292 294 296 298 299 299 300 301 301 301 302
297 295 294 293 294 293 293 293 293 292 292 291 291 291 291 290 290 290 289 289 288 288 287 287 287 287 287 288 288 289 289 290 291 294 296 298 299 300 300 301 301 301 301
296 296 295 295 294 294 293 293 292 292 291 291 290 290 290 290 290 290 289 289 288 288 287 287 287 287 287 288 288 289 289 290 291 293 295 297 300 299 300 301 301 301 301
296 296 295 295 294 294 293 292 292 292 291 291 290 290 290 290 290 289 289 289 288 287 287 287 287 287 287 287 287 288 289 289 290 291 295 297 299 299 299 300 301 301 300
296 296 295 295 294 293 293 292 292 291 291 291 290 290 289 289 289 289 289 288 288 287 287 287 287 287 287 287 287 287 288 289 289 290 293 295 298 299 299 300 300 299 299
Wind_Speed
43 52 45 47 51 45 41 36 36 29 26 24 19 16 13 11 8 7 9 11 10 10 10 12 13 15 16 17 18 19 20 21 21 28 28 36 38 42 42 38 36 34 32
45 47 47 51 49 45 43 42 32 31 26 22 19 17 15 12 11 11 11 11 10 11 12 12 14 16 17 18 19 20 20 19 22 26 31 39 40 43 44 42 38 36 35
43 50 57 55 49 44 44 37 36 31 27 22 19 18 16 14 12 11 10 11 12 11 11 13 15 17 18 18 19 19 19 21 21 25 34 37 41 46 47 43 41 42 36
46 51 54 53 45 44 41 40 34 31 27 22 20 18 17 16 15 13 11 12 11 9 11 15 18 19 19 19 19 19 20 20 22 26 32 38 44 46 45 46 47 43 40
50 51 50 45 48 45 41 38 37 29 23 22 20 19 18 16 14 11 10 10 9 9 13 16 17 19 20 19 19 18 18 19 22 26 31 36 42 46 46 45 43 45 42
54 53 51 52 47 39 39 37 31 27 25 22 21 20 18 16 13 9 9 9 9 11 14 14 15 17 17 17 16 16 17 17 20 25 27 32 36 38 39 41 41 44 37
56 55 56 50 45 42 38 34 31 30 27 26 24 20 18 17 11 9 6 6 9 12 15 16 16 17 18 18 17 15 13 14 17 21 25 28 33 35 37 37 37 38 36
60 57 56 44 44 41 36 33 34 33 29 26 23 19 18 17 9 6 4 6 10 14 16 18 18 19 21 22 21 16 14 15 17 19 20 24 30 31 32 31 33 34 36
56 47 42 50 46 40 39 38 35 33 30 26 23 20 17 15 9 7 5 8 11 14 15 18 19 20 21 22 20 19 18 17 15 17 19 21 29 31 31 31 32 36 37
41 46 47 48 42 40 41 39 36 32 30 27 24 21 18 17 13 10 9 9 13 13 16 17 17 19 20 20 20 21 22 21 20 20 23 25 31 33 33 29 31 35 34
50 47 42 40 42 42 38 36 33 31 29 26 23 22 19 17 15 14 11 12 14 14 15 15 16 17 19 18 18 20 20 16 19 23 28 32 34 37 34 31 29 33 33
48 46 43 42 39 39 39 36 31 28 27 27 25 24 21 19 18 16 13 13 13 13 14 15 16 16 17 18 18 18 17 17 21 25 29 35 38 38 35 33 29 34 32
50 49 47 45 43 39 38 34 30 28 28 28 25 26 24 20 19 15 12 12 12 14 16 17 16 17 18 18 19 20 21 22 24 27 31 32 35 35 32 33 34 35 36
52 49 48 47 44 39 35 30 28 27 28 27 26 26 23 21 18 13 11 10 12 15 15 16 20 23 23 21 20 23 25 25 27 27 29 29 32 37 36 32 37 39 40
49 49 48 44 39 36 33 28 27 27 23 27 26 23 20 20 16 12 11 13 16 16 16 20 24 27 27 26 26 26 26 25 26 26 28 30 33 37 36 31 33 39 41
54 51 47 44 43 39 36 38 31 29 26 24 22 20 22 18 13 13 14 16 16 17 22 27 29 31 30 29 28 27 28 27 27 26 26 30 34 37 35 30 30 32 38
51 49 47 43 40 39 38 38 40 32 27 25 22 19 17 16 14 15 17 18 21 22 28 30 31 31 30 28 28 27 27 27 24 25 26 30 33 35 34 31 28 29 32
48 45 42 40 39 38 37 37 36 35 33 28 21 18 18 18 17 16 17 19 25 29 30 31 30 29 29 27 27 27 25 26 25 26 26 30 33 34 34 30 27 26 26
43 42 42 42 41 40 37 36 33 31 29 27 25 23 21 21 20 20 22 26 29 30 30 29 28 28 27 26 26 26 25 26 26 27 27 31 33 34 31 28 25 23 23
44 43 43 42 39 38 36 36 33 30 27 25 23 21 19 19 23 25 27 28 28 29 28 27 28 27 26 26 26 27 25 26 26 28 29 32 32 32 29 26 24 22 22
44 40 38 38 36 35 33 34 31 28 27 26 24 21 20 23 26 26 27 27 27 27 26 26 26 26 27 26 26 27 26 26 26 28 31 33 32 31 27 24 24 22 21
39 36 34 34 33 34 33 30 27 26 26 26 25 22 22 24 25 27 26 25 25 25 25 25 26 27 27 27 26 27 27 27 26 27 31 33 32 30 27 26 25 24 23
37 39 40 40 38 36 33 29 27 25 24 22 22 23 22 24 24 25 25 23 22 23 23 23 24 25 25 26 26 27 27 26 27 26 29 32 31 30 28 28 26 26 26
39 39 39 38 35 32 28 26 24 25 24 23 21 20 20 20 21 21 21 21 21 22 22 23 24 24 24 24 25 25 25 22 21 23 26 31 30 30 28 27 27 28 29
36 35 34 32 29 28 26 25 24 23 23 23 22 20 17 16 16 16 17 19 20 20 21 22 23 23 23 23 24 22 21 22 20 20 23 28 30 30 29 27 27 27 29
32 31 31 29 27 26 25 24 22 21 22 20 19 18 16 14 13 12 14 17 18 19 20 21 22 22 22 23 23 23 21 20 22 20 22 24 29 29 26 25 26 28 25
Wind_Direction
193 179 182 189 185 181 185 190 178 177 164 159 155 150 148 141 128 119 94 87 85 87 74 50 42 31 17 10 5 356 352 351 348 342 344 354 355 356 353 1 358 354 357
189 180 177 186 190 188 190 175 170 158 157 154 149 146 144 139 120 102 99 104 96 77 61 47 35 20 11 8 2 354 350 356 352 350 346 357 356 359 356 360 358 356 357
188 183 179 186 187 184 168 162 158 156 158 149 149 146 138 124 110 99 112 101 84 69 51 34 24 14 10 9 3 355 351 355 3 357 354 358 357 360 357 357 358 1 3
188 183 180 185 182 166 159 157 155 157 149 148 145 134 124 115 107 110 99 86 79 73 46 26 18 12 13 11 7 1 358 2 4 2 0 359 0 359 357 355 355 360 2
177 174 172 166 156 154 154 152 151 148 147 148 140 131 125 116 108 106 93 87 78 53 35 22 16 17 16 14 12 10 5 3 8 6 5 1 3 359 356 354 354 357 2
177 168 162 152 151 154 155 154 143 146 149 145 139 136 129 119 114 104 88 80 59 35 26 24 15 13 10 15 13 12 10 8 13 10 9 5 5 2 355 356 356 358 352
152 153 151 148 149 154 154 144 145 146 144 140 136 133 126 120 117 105 83 65 40 29 24 25 21 18 10 16 14 8 10 16 16 14 14 13 7 5 358 356 359 359 354
134 135 140 137 151 152 148 145 143 139 139 135 131 129 126 119 119 109 90 57 39 35 30 30 22 13 9 10 12 14 15 14 17 20 23 20 17 10 5 1 1 358 0
131 131 142 154 152 147 147 143 140 137 134 133 129 131 126 121 116 106 80 48 47 46 39 32 24 14 15 16 13 20 21 26 28 30 28 25 25 19 10 7 11 7 357
132 145 153 153 147 148 145 140 136 133 131 129 128 123 120 114 115 102 78 71 58 48 39 30 23 20 22 20 19 21 25 27 27 29 29 29 31 25 16 21 22 15 6
149 151 154 148 147 147 139 135 135 132 129 126 123 117 110 105 100 91 87 64 54 45 36 28 23 21 24 27 31 31 28 24 33 36 36 35 32 29 21 21 32 29 15
149 148 144 143 141 139 136 133 128 125 124 123 118 110 103 98 96 90 70 55 44 39 38 34 30 28 31 34 37 41 35 34 33 36 35 34 32 27 22 23 34 40 30
145 144 144 140 137 136 132 127 123 124 121 116 113 107 104 104 92 82 64 53 48 47 48 47 44 41 41 43 44 41 38 38 35 36 35 35 33 31 22 25 35 41 38
143 140 138 138 138 135 126 120 120 121 116 113 112 111 110 95 84 76 66 56 59 55 54 55 52 49 46 49 46 42 42 39 37 36 36 34 37 34 27 26 33 38 36
139 137 139 136 135 131 126 119 115 110 112 114 112 102 98 90 82 80 74 62 52 53 56 54 49 46 46 48 46 41 41 41 39 37 34 33 34 35 31 30 34 38 41
140 142 142 143 142 139 130 121 114 114 114 105 104 97 94 91 96 85 76 71 64 59 56 52 49 46 46 45 43 39 37 39 38 36 34 35 32 35 30 34 38 40 45
142 142 140 142 142 136 131 125 119 110 104 100 97 96 95 99 89 73 68 73 68 60 57 54 51 48 45 43 40 37 37 38 38 36 35 33 30 35 32 33 40 40 44
142 143 142 139 135 132 127 123 120 116 112 105 102 105 99 96 89 82 73 70 64 59 56 53 50 48 45 42 40 38 39 38 39 35 35 33 31 33 32 32 39 42 46
141 138 134 131 128 125 123 120 117 117 114 107 102 93 89 89 87 78 71 65 63 59 55 53 51 48 45 43 42 40 41 40 37 34 35 30 31 34 35 34 38 48 47
137 135 133 131 129 127 126 126 125 121 112 101 92 91 97 93 81 75 70 65 62 59 54 52 50 47 45 42 40 41 44 42 39 34 35 31 36 38 36 36 38 47 52
137 137 134 133 132 129 128 129 128 116 107 102 100 93 86 83 79 74 69 64 59 57 53 49 48 46 43 41 41 42 43 42 39 36 36 35 38 38 39 40 43 50 56
134 135 135 134 133 132 129 124 120 114 112 105 98 94 87 80 74 71 67 63 59 55 52 47 45 42 39 38 39 41 41 39 37 39 38 38 41 41 43 44 49 53 58
138 135 132 128 126 125 125 121 114 110 109 107 104 95 83 75 69 67 64 60 57 54 52 51 48 45 41 38 38 41 40 39 35 37 40 41 42 42 45 46 51 58 69
136 134 132 131 129 125 119 113 112 112 109 107 101 91 82 75 69 64 61 55 53 51 49 49 48 45 43 42 42 45 43 38 35 38 43 44 46 45 48 53 66 78 81
137 134 132 129 128 126 126 122 116 110 105 100 96 92 88 79 72 63 59 54 53 49 49 48 48 45 44 44 44 45 44 36 34 36 44 48 50 53 53 68 79 78 68
138 136 132 132 131 129 124 120 114 111 104 97 93 92 91 89 80 66 58 56 53 49 47 47 47 45 45 45 44 42 42 41 37 37 40 48 53 58 64 74 73 61 58